Terminal Aerodrome Forecast
Issued by NWS Omaha/Valley, NE

Home | Current Version | Previous Version | Text Only | Print | Product List | Glossary On
Versions: 1 2 3 4 5 6 7 8 9 10 11 12 13 14 15 16 17 18 19 20 21 22 23 24 25 26 27 28 29 30 31 32 33
000
FTUS43 KOAX 301249 AAA
TAFOMA
TAF AMD
KOMA 301249Z 3013/3112 16008KT P6SM SCT250
     FM301600 20013G22KT P6SM SCT250
     FM302000 24015G24KT P6SM SCT250
     FM302300 28008KT P6SM SCT250
     FM310300 33005KT P6SM SCT250=

USA.gov is the U.S. government's official web portal to all federal, state and local government web resources and services.